Weather History for Anaktuvuk Pass, AK

Change the Weather History Date:

Saturday, November 9, 2013

  Actual Average Record
Temperature  
Mean Temperature 24 °F -  
Max Temperature 33 °F 6 °F 33 °F (2013)
Min Temperature 15 °F -1 °F -20 °F (1999)
Degree Days  
Heating Degree Days 41    
Moisture  
Dew Point 15 °F    
Average Humidity 68    
Maximum Humidity 74    
Minimum Humidity 60    
Precipitation  
Precipitation 0.00 in - - ()
Sea Level Pressure  
Sea Level Pressure 29.38 in    
Wind  
Wind Speed 20 mph (SSW)    
Max Wind Speed 32 mph    
Max Gust Speed 41 mph    
Visibility 3 miles    
Events      
Averages and records for this station are not official NWS values.
T = Trace of Precipitation, MM = Missing Value Source: NWS Daily Summary

Daily Weather History Graph

Daily Weather History Graph

Search for Another Location

Airport:

Trip Planner

Search our weather history database for the weather conditions in past years. The results will help you decide how hot, cold, wet, or windy it might be!

Date:

Astronomy

Nov. 09, 2013 Rise Set
Actual Time 9:56 AM AKST 3:44 PM AKST
Civil Twilight 8:43 AM AKST 4:57 PM AKST
Nautical Twilight 7:32 AM AKST 6:08 PM AKST
Astronomical Twilight 6:26 AM AKST 7:13 PM AKST
Moon 2:54 PM AKST (11/9) 11:22 PM AKST (11/9)
Length of Visible Light 8h 14m
Length of Day
5h 47m
Waxing Crescent, 46% of the Moon is Illuminated
Nov 9
Waxing Crescent
Nov 9
First Quarter
Nov 17
Full
Nov 25
Last Quarter
Dec 2
New

Hourly Weather History & Observations

Time (AKST) Temp. Windchill Dew Point Humidity Pressure Visibility Wind Dir Wind Speed Gust Speed Precip Events Conditions
12:16 AM 15.8 °F 0.9 °F 6.8 °F 68% 29.66 in 2.0 mi SW 15.0 mph 20.7 mph N/A   Overcast
12:36 AM 15.8 °F 0.9 °F 6.8 °F 68% 29.65 in 1.8 mi SW 15.0 mph - N/A   Overcast
12:56 AM 15.8 °F 0.3 °F 6.8 °F 68% 29.64 in 1.2 mi SW 16.1 mph 23.0 mph N/A   Overcast
1:16 AM 15.8 °F -0.2 °F 8.6 °F 73% 29.64 in 1.8 mi SSW 17.3 mph 21.9 mph N/A   Overcast
1:36 AM 17.6 °F 0.9 °F 8.6 °F 68% 29.63 in 1.5 mi SSW 20.7 mph 27.6 mph N/A   Overcast
1:56 AM 15.8 °F -0.2 °F 8.6 °F 73% 29.63 in 0.8 mi SSW 17.3 mph 26.5 mph N/A   Overcast
2:16 AM 15.8 °F -0.6 °F 8.6 °F 73% 29.62 in 2.5 mi SSW 18.4 mph 24.2 mph N/A   Overcast
2:36 AM 17.6 °F 1.3 °F 8.6 °F 68% 29.61 in 2.5 mi SSW 19.6 mph 27.6 mph N/A   Overcast
2:56 AM 17.6 °F 0.9 °F 8.6 °F 68% 29.61 in 2.5 mi SSW 20.7 mph 26.5 mph N/A   Overcast
3:16 AM 17.6 °F -1.0 °F 8.6 °F 68% 29.60 in 1.8 mi South 26.5 mph 32.2 mph N/A   Overcast
3:36 AM 17.6 °F -0.6 °F 8.6 °F 68% 29.58 in 1.5 mi South 25.3 mph 33.4 mph N/A   Overcast
3:56 AM 17.6 °F -0.3 °F 8.6 °F 68% 29.58 in 2.0 mi SSW 24.2 mph 31.1 mph N/A   Overcast
4:16 AM 17.6 °F 0.1 °F 8.6 °F 68% 29.58 in 2.5 mi SSW 23.0 mph 34.5 mph N/A   Overcast
4:36 AM 17.6 °F 1.3 °F 8.6 °F 68% 29.58 in 3.0 mi SSW 19.6 mph - N/A   Overcast
4:56 AM 17.6 °F 0.1 °F 8.6 °F 68% 29.57 in 3.0 mi South 23.0 mph 29.9 mph N/A   Overcast
5:16 AM 17.6 °F -1.3 °F 8.6 °F 68% 29.56 in 1.5 mi South 27.6 mph 35.7 mph N/A   Overcast
5:36 AM 19.4 °F 2.8 °F 8.6 °F 63% 29.55 in 5.0 mi South 21.9 mph 28.8 mph N/A   Overcast
5:56 AM 19.4 °F 4.1 °F 10.4 °F 68% 29.56 in 9.0 mi SSW 18.4 mph 26.5 mph N/A   Overcast
6:16 AM 19.4 °F 2.8 °F 8.6 °F 63% 29.55 in 10.0 mi SSW 21.9 mph 26.5 mph N/A   Overcast
6:36 AM 19.4 °F 3.2 °F 10.4 °F 68% 29.54 in 5.0 mi SW 20.7 mph 26.5 mph N/A   Overcast
6:56 AM 19.4 °F 4.1 °F 10.4 °F 68% 29.52 in 2.5 mi SSW 18.4 mph 28.8 mph N/A   Overcast
7:16 AM 19.4 °F 2.5 °F 12.2 °F 74% 29.53 in 1.5 mi South 23.0 mph 28.8 mph N/A   Overcast
7:36 AM 19.4 °F 2.1 °F 12.2 °F 74% 29.51 in 1.5 mi SSW 24.2 mph 29.9 mph N/A   Overcast
7:56 AM 19.4 °F 1.4 °F 12.2 °F 74% 29.50 in 2.0 mi South 26.5 mph 31.1 mph N/A   Overcast
8:16 AM 19.4 °F 2.1 °F 12.2 °F 74% 29.50 in 1.8 mi SSW 24.2 mph 29.9 mph N/A   Overcast
8:36 AM 19.4 °F 1.8 °F 12.2 °F 74% 29.49 in 2.0 mi South 25.3 mph 29.9 mph N/A   Overcast
8:56 AM 21.2 °F 4.9 °F 12.2 °F 68% 29.49 in 3.0 mi South 23.0 mph 31.1 mph N/A   Overcast
9:16 AM 21.2 °F 6.0 °F 12.2 °F 68% 29.48 in 3.0 mi South 19.6 mph 28.8 mph N/A   Overcast
9:36 AM 21.2 °F 4.2 °F 12.2 °F 68% 29.48 in 2.0 mi South 25.3 mph 31.1 mph N/A   Overcast
9:56 AM 21.2 °F 5.2 °F 14.0 °F 74% 29.48 in 2.5 mi South 21.9 mph 29.9 mph N/A   Overcast
10:16 AM 21.2 °F 4.9 °F 12.2 °F 68% 29.47 in 1.2 mi South 23.0 mph 32.2 mph N/A   Overcast
10:36 AM 21.2 °F 4.9 °F 12.2 °F 68% 29.46 in 1.8 mi South 23.0 mph 35.7 mph N/A   Overcast
10:56 AM 21.2 °F 5.2 °F 14.0 °F 74% 29.46 in 2.0 mi South 21.9 mph 33.4 mph N/A   Overcast
11:16 AM 21.2 °F 6.0 °F 14.0 °F 74% 29.46 in 3.0 mi SSW 19.6 mph 27.6 mph N/A   Overcast
11:36 AM 23.0 °F 9.2 °F 14.0 °F 68% 29.46 in 2.0 mi SSW 17.3 mph 24.2 mph N/A   Overcast
11:56 AM 21.2 °F 7.8 °F 14.0 °F 74% 29.45 in 4.0 mi South 15.0 mph - N/A   Overcast
12:16 PM 23.0 °F 10.1 °F 15.8 °F 74% 29.43 in 3.0 mi SSW 15.0 mph 19.6 mph N/A   Overcast
12:36 PM 23.0 °F 11.1 °F 15.8 °F 74% 29.42 in 2.5 mi SSW 12.7 mph 20.7 mph N/A   Overcast
12:56 PM 24.8 °F 11.5 °F 15.8 °F 69% 29.39 in 2.5 mi SW 17.3 mph 21.9 mph N/A   Overcast
1:16 PM 24.8 °F 10.3 °F 15.8 °F 69% 29.38 in 7.0 mi South 20.7 mph 25.3 mph N/A   Overcast
1:36 PM 24.8 °F 9.0 °F 15.8 °F 69% 29.35 in 2.5 mi South 25.3 mph 32.2 mph N/A   Overcast
1:56 PM 24.8 °F 8.1 °F 15.8 °F 69% 29.33 in 1.0 mi South 28.8 mph 38.0 mph N/A   Overcast
2:16 PM 26.6 °F 9.8 °F 17.6 °F 69% 29.32 in 0.8 mi South 32.2 mph 41.4 mph N/A   Overcast
2:36 PM 26.6 °F 10.3 °F 17.6 °F 69% 29.32 in 1.0 mi South 29.9 mph 40.3 mph N/A   Overcast
2:56 PM 26.6 °F 11.4 °F 17.6 °F 69% 29.32 in 3.0 mi South 25.3 mph 32.2 mph N/A   Overcast
3:16 PM 28.4 °F 13.8 °F 17.6 °F 64% 29.31 in 4.0 mi South 25.3 mph 34.5 mph N/A   Overcast
3:36 PM 28.4 °F 14.7 °F 17.6 °F 64% 29.29 in 5.0 mi SSW 21.9 mph 29.9 mph N/A   Overcast
3:56 PM 28.4 °F 14.4 °F 17.6 °F 64% 29.27 in 3.0 mi SSW 23.0 mph 31.1 mph N/A   Overcast
4:16 PM 28.4 °F 13.8 °F 17.6 °F 64% 29.25 in 1.0 mi South 25.3 mph 39.1 mph N/A   Overcast
4:36 PM 28.4 °F 12.7 °F 17.6 °F 64% 29.24 in 1.5 mi South 29.9 mph 38.0 mph N/A   Overcast
4:56 PM 26.6 °F 11.7 °F 17.6 °F 69% 29.25 in 1.2 mi South 24.2 mph 34.5 mph N/A   Overcast
5:16 PM 26.6 °F 13.8 °F 19.4 °F 74% 29.26 in 1.0 mi SSW 17.3 mph 28.8 mph N/A   Overcast
5:36 PM 26.6 °F 13.4 °F 19.4 °F 74% 29.24 in 1.8 mi SSW 18.4 mph 27.6 mph N/A   Overcast
5:56 PM 28.4 °F 14.1 °F 19.4 °F 69% 29.22 in 1.5 mi South 24.2 mph 29.9 mph N/A   Overcast
6:16 PM 28.4 °F 15.4 °F 19.4 °F 69% 29.21 in 1.5 mi South 19.6 mph 33.4 mph N/A   Overcast
6:36 PM 28.4 °F 15.8 °F 19.4 °F 69% 29.19 in 5.0 mi South 18.4 mph 26.5 mph N/A   Overcast
6:56 PM 28.4 °F 13.8 °F 19.4 °F 69% 29.18 in 1.8 mi South 25.3 mph 33.4 mph N/A   Overcast
7:16 PM 28.4 °F 13.3 °F 19.4 °F 69% 29.17 in 1.2 mi South 27.6 mph 33.4 mph N/A   Overcast
7:36 PM 30.2 °F 16.8 °F 19.4 °F 64% 29.15 in 2.5 mi South 23.0 mph 31.1 mph N/A   Overcast
7:56 PM 30.2 °F 16.5 °F 19.4 °F 64% 29.14 in 2.5 mi South 24.2 mph 33.4 mph N/A   Overcast
8:16 PM 30.2 °F 18.1 °F 19.4 °F 64% 29.14 in 2.5 mi South 18.4 mph 34.5 mph N/A   Overcast
8:36 PM 30.2 °F 17.4 °F 19.4 °F 64% 29.11 in 2.5 mi South 20.7 mph 34.5 mph N/A   Overcast
8:56 PM 30.2 °F 16.2 °F 19.4 °F 64% 29.10 in 2.0 mi South 25.3 mph 34.5 mph N/A   Overcast
9:16 PM 30.2 °F 16.5 °F 19.4 °F 64% 29.09 in 3.0 mi South 24.2 mph 32.2 mph N/A   Overcast
9:36 PM 30.2 °F 17.4 °F 19.4 °F 64% 29.08 in 2.0 mi South 20.7 mph 31.1 mph N/A   Overcast
9:56 PM 30.2 °F 20.8 °F 21.2 °F 69% 29.08 in 2.0 mi SSW 11.5 mph 23.0 mph N/A   Overcast
10:16 PM 30.2 °F 18.9 °F 21.2 °F 69% 29.07 in 1.8 mi South 16.1 mph 26.5 mph N/A   Overcast
10:36 PM 32.0 °F 18.1 °F 21.2 °F 64% 29.05 in 2.0 mi South 27.6 mph 32.2 mph N/A   Overcast
10:56 PM 33.8 °F 22.2 °F 21.2 °F 60% 29.06 in 2.0 mi South 20.7 mph 33.4 mph N/A   Overcast
11:16 PM 33.8 °F 22.8 °F 21.2 °F 60% 29.05 in 4.0 mi South 18.4 mph 26.5 mph N/A   Overcast
11:36 PM 33.8 °F 22.8 °F 21.2 °F 60% 29.06 in 5.0 mi South 18.4 mph 23.0 mph N/A   Mostly Cloudy
11:56 PM 33.8 °F 23.9 °F 21.2 °F 60% 29.07 in 8.0 mi South 15.0 mph 24.2 mph N/A   Overcast